Regional Weather Roundup
Issued by NWS

Home | Current Version | Previous Version | Graphics & Text | Print | Product List | Glossary On
Versions: 1 2 3 4 5 6 7 8 9 10 11 12 13 14 15 16 17 18 19 20 21 22 23 24 25 26 27 28 29 30 31 32 33 34 35 36 37 38 39 40 41 42 43 44 45 46 47 48 49 50
000
ASUS43 KLMK 281710
RWRKY
KENTUCKY REGIONAL WEATHER ROUNDUP
NATIONAL WEATHER SERVICE LOUISVILLE KY
100 PM EDT MON JUL 28 2014

NOTE "FAIR" INDICATES FEW OR NO CLOUDS BELOW 12,000 FEET
WITH NO SIGNIFICANT WEATHER AND/OR OBSTRUCTIONS TO VISIBILITY.

KYZ001>023-026-027-061>063-070>075-281800-
WESTERN AND SOUTH CENTRAL KENTUCKY

CITY           SKY/WX    TMP DP  RH WIND       PRES   REMARKS
PADUCAH        PTSUNNY   81  63  54 NW9       30.06S
HENDERSON      PTSUNNY   75  61  60 N12       30.04S
OWENSBORO      MOSUNNY   76  60  57 N10       30.04S
HOPKINSVILLE   MOSUNNY   79  60  51 NW15      30.03F
BOWLING GREEN  MOSUNNY   79  60  52 NW9G18    30.02S
GLASGOW        PTSUNNY   76  60  58 W13G18    30.01S
$$

KYZ024-025-028>034-038-045-046-053-281800-
NORTH CENTRAL KENTUCKY

CITY           SKY/WX    TMP DP  RH WIND       PRES   REMARKS
LOUISVILLE/SDF PTSUNNY   73  60  63 NW10      30.00S
LOUISVILLE/LOU PTSUNNY   74  58  57 N9        30.00S
FORT KNOX      PTSUNNY   73  62  68 NW9       30.00S
$$

KYZ035>037-039>044-047>052-055>060-089>105-281800-
NORTHEAST KENTUCKY

CITY           SKY/WX    TMP DP  RH WIND       PRES   REMARKS
LEXINGTON      CLOUDY    70  59  68 W12       30.00R
COVINGTON      CLOUDY    68  59  73 NW12      29.97S
FRANKFORT      CLOUDY    68  59  73 W6        29.99S
$$

KYZ054-064>069-076>088-106>120-281800-
SOUTHEAST KENTUCKY

CITY           SKY/WX    TMP DP  RH WIND       PRES   REMARKS
JACKSON        PTSUNNY   70  60  70 VRB6G16   29.97S
LONDON         PTSUNNY   76  60  57 W12       29.99S
SOMERSET       PTSUNNY   73  59  60 N10       30.00F
MIDDLESBORO    CLOUDY    75  60  59 NW6       29.99S
MONTICELLO     MOSUNNY   76  63  64 VRB7      30.01F
$$




USA.gov is the U.S. government's official web portal to all federal, state and local government web resources and services.